N2IVN Vineland NJ US current weather conditions

sailwx.info

Wind from 135 at 1 knots gusting 7

Air temperature 5.0° C
Dewpoint 4.0° C

Last reported at 2019-Dec-15 05:10 UTC.
Time now 2019-Dec-15 05:48 UTC

Location: N 39°30' W 075°01'.
View on Google Maps.

See reports from other nearby stations

  
Tides and Currents Weather Stations Pressure Air Temp Water Temp Dewpoint Dewpoint Depression Visibility Wind Speed Wind Dir Waves Ship Positions
date/time (UTC)wind fromknots sea level pressurealtimeterstation pressurevisibilityair tempwater tempwave heightnotes
2019-Dec-15 05:10 135 1 gusting 7 5.0
2019-Dec-15 05:05 157 0 gusting 2 5.0
2019-Dec-15 05:00 165 1 gusting 11 5.0
2019-Dec-15 04:55 176 1 gusting 6 5.0
2019-Dec-15 04:50 168 4 gusting 10 5.0
2019-Dec-15 04:45 184 1 gusting 6 5.0
2019-Dec-15 04:40 152 1 gusting 10 5.0
2019-Dec-15 04:35 166 4 gusting 7 5.0
2019-Dec-15 04:30 142 2 gusting 7 5.0
2019-Dec-15 04:25 145 2 gusting 7 5.0
2019-Dec-15 04:20 202 2 gusting 8 5.0
2019-Dec-15 04:15 140 2 gusting 6 5.0
2019-Dec-15 04:10 150 3 gusting 7 5.6
2019-Dec-15 04:05 158 2 gusting 7 5.6
2019-Dec-15 04:00 138 4 gusting 10 5.6
2019-Dec-15 03:55 169 5 gusting 11 5.6
2019-Dec-15 03:50 180 3 gusting 6 5.6
2019-Dec-15 03:45 165 4 gusting 12 5.6
2019-Dec-15 03:40 171 2 gusting 8 5.6
2019-Dec-15 03:35 159 0 gusting 6 5.6
2019-Dec-15 03:30 147 2 gusting 6 6.1
2019-Dec-15 03:25 179 4 gusting 12 6.1
2019-Dec-15 03:20 163 2 gusting 7 6.1
2019-Dec-15 03:15 182 0 gusting 6 6.1
2019-Dec-15 03:10 130 2 gusting 7 6.1
2019-Dec-15 03:05 167 3 gusting 6 6.1
2019-Dec-15 03:00 168 0 gusting 5 6.1
2019-Dec-15 02:55 185 2 gusting 7 6.1
2019-Dec-15 02:50 189 3 gusting 5 6.1
2019-Dec-15 02:45 173 0 gusting 6 6.1
2019-Dec-15 02:40 139 1 gusting 7 6.1
2019-Dec-15 02:35 132 2 gusting 12 6.1
2019-Dec-15 02:30 158 0 gusting 12 6.1
2019-Dec-15 02:25 156 3 gusting 10 6.7
2019-Dec-15 02:20 158 0 gusting 10 6.7
2019-Dec-15 02:15 142 2 gusting 6 6.7
2019-Dec-15 02:10 140 1 gusting 6 6.7
2019-Dec-15 02:05 164 1 gusting 6 6.7
2019-Dec-15 02:00 164 1 gusting 7 6.7
2019-Dec-15 01:55 121 1 gusting 10 7.2
2019-Dec-15 01:50 138 4 gusting 12 7.2
2019-Dec-15 01:45 142 3 gusting 12 7.2
2019-Dec-15 01:40 172 4 gusting 8 7.8
2019-Dec-15 01:35 135 2 gusting 7 7.8
2019-Dec-15 01:30 175 4 gusting 6 7.8
2019-Dec-15 01:25 141 4 gusting 6 8.3
2019-Dec-15 01:20 168 6 gusting 14 8.3
2019-Dec-15 01:15 125 5 gusting 10 8.3
2019-Dec-15 01:10 133 4 gusting 6 8.3
2019-Dec-15 01:05 132 4 gusting 10 8.3
2019-Dec-15 01:00 148 3 gusting 13 8.3
2019-Dec-15 00:55 160 6 gusting 11 8.3
2019-Dec-15 00:50 169 5 gusting 11 8.3
2019-Dec-15 00:45 142 2 gusting 6 8.3
2019-Dec-15 00:40 125 4 gusting 8 8.3
2019-Dec-15 00:35 169 6 gusting 10 8.3
2019-Dec-15 00:30 162 4 gusting 12 8.9
2019-Dec-15 00:25 140 4 gusting 12 8.9
2019-Dec-15 00:20 105 4 gusting 15 8.9
2019-Dec-15 00:15 102 5 gusting 11 8.9
2019-Dec-15 00:10 131 4 gusting 11 8.9
2019-Dec-15 00:05 148 5 gusting 13 8.9
2019-Dec-15 00:00 136 5 gusting 18 8.9
2019-Dec-14 23:55 113 7 gusting 22 8.9
2019-Dec-14 23:50 110 5 gusting 14 8.9
2019-Dec-14 23:45 089 6 gusting 11 8.9
2019-Dec-14 23:40 112 5 gusting 12 8.9
2019-Dec-14 23:35 065 6 gusting 12 8.9
2019-Dec-14 23:30 111 5 gusting 10 8.9
2019-Dec-14 23:25 113 6 gusting 8 8.9
2019-Dec-14 23:20 090 6 gusting 12 8.9
2019-Dec-14 23:15 099 7 gusting 11 8.9
2019-Dec-14 23:10 078 6 gusting 15 8.9
2019-Dec-14 23:05 059 6 gusting 10 8.9
2019-Dec-14 23:00 089 7 gusting 14 8.9
2019-Dec-14 22:55 106 7 gusting 13 8.9
2019-Dec-14 22:50 145 6 gusting 13 8.9
2019-Dec-14 22:45 115 4 gusting 8 8.9
2019-Dec-14 22:40 108 2 gusting 10 8.9
2019-Dec-14 22:35 098 6 gusting 12 8.9
2019-Dec-14 22:30 083 5 gusting 17 8.9
2019-Dec-14 22:25 106 4 gusting 11 8.9
2019-Dec-14 22:20 104 6 gusting 10 8.9
2019-Dec-14 22:15 111 2 gusting 10 8.9
2019-Dec-14 22:10 110 6 gusting 13 8.9
2019-Dec-14 22:05 105 5 gusting 11 8.9
2019-Dec-14 22:00 090 5 gusting 11 8.9
2019-Dec-14 21:55 114 6 gusting 8 9.4
2019-Dec-14 21:50 126 5 gusting 8 9.4
2019-Dec-14 21:45 099 4 gusting 6 9.4
2019-Dec-14 21:40 106 3 gusting 6 9.4
2019-Dec-14 21:35 087 4 gusting 6 9.4
2019-Dec-14 21:30 104 3 gusting 7 9.4
2019-Dec-14 21:25 087 4 gusting 6 10.0
2019-Dec-14 21:20 098 2 gusting 5 10.0
2019-Dec-14 21:10 113 2 gusting 7 10.6
2019-Dec-14 21:05 130 3 gusting 15 10.6
2019-Dec-14 21:00 096 4 gusting 13 10.6
2019-Dec-14 20:55 109 4 gusting 12 10.6
2019-Dec-14 20:50 108 6 gusting 13 10.6
2019-Dec-14 20:45 098 4 gusting 10 11.1
2019-Dec-14 20:40 109 5 gusting 13 11.1
2019-Dec-14 20:35 119 5 gusting 8 11.1
2019-Dec-14 20:30 128 5 gusting 13 11.1
2019-Dec-14 20:25 100 2 gusting 8 11.1
2019-Dec-14 20:20 145 4 gusting 13 11.7
2019-Dec-14 20:15 141 1 gusting 6 11.7
2019-Dec-14 20:10 125 6 gusting 12 11.7
2019-Dec-14 20:05 112 7 gusting 19 11.7
2019-Dec-14 20:00 112 6 gusting 11 11.7
2019-Dec-14 19:55 096 6 gusting 13 12.2
2019-Dec-14 19:50 098 6 gusting 13 12.2
2019-Dec-14 19:45 101 7 gusting 15 12.2
2019-Dec-14 19:40 101 7 gusting 17 12.8
2019-Dec-14 19:35 121 8 gusting 13 12.8
2019-Dec-14 19:30 107 6 gusting 14 12.8
2019-Dec-14 19:25 094 6 gusting 15 12.8
2019-Dec-14 19:20 114 7 gusting 10 12.8
2019-Dec-14 19:15 102 8 gusting 13 13.3
2019-Dec-14 19:10 086 11 gusting 18 13.3
2019-Dec-14 19:05 112 7 gusting 13 13.3
2019-Dec-14 19:00 100 2 gusting 11 13.3
2019-Dec-14 18:55 087 6 gusting 15 13.3
2019-Dec-14 18:50 102 6 gusting 15 13.3
2019-Dec-14 18:45 090 4 gusting 15 13.3
2019-Dec-14 18:40 075 6 gusting 10 13.9
2019-Dec-14 18:35 088 6 gusting 10 13.9
2019-Dec-14 18:30 091 2 gusting 8 13.9
2019-Dec-14 18:25 111 4 gusting 8 13.9
2019-Dec-14 18:20 074 5 gusting 7 13.9
2019-Dec-14 18:15 076 5 gusting 10 13.9
2019-Dec-14 18:10 065 4 gusting 8 13.9
2019-Dec-14 18:05 072 4 gusting 7 13.9
2019-Dec-14 18:00 099 4 gusting 6 13.9
2019-Dec-14 17:55 083 5 gusting 7 13.9
2019-Dec-14 17:50 086 2 gusting 6 13.9
2019-Dec-14 17:45 068 1 gusting 6 14.4
2019-Dec-14 17:40 073 0 gusting 5 14.4
2019-Dec-14 17:35 081 2 gusting 6 14.4
2019-Dec-14 17:30 089 5 gusting 8 14.4
2019-Dec-14 17:25 059 3 gusting 7 14.4
2019-Dec-14 17:20 090 2 gusting 5 15.0
2019-Dec-14 17:15 110 5 gusting 7 15.0
2019-Dec-14 17:10 101 5 gusting 7 15.0
2019-Dec-14 17:05 064 4 gusting 7 15.6
2019-Dec-14 17:00 105 2 gusting 4 15.6
2019-Dec-14 16:55 094 2 gusting 6 15.6
2019-Dec-14 16:50 053 0 gusting 6 15.6
2019-Dec-14 16:45 064 15.0
2019-Dec-14 15:55 068 14.4
2019-Dec-14 15:50 090 14.4
2019-Dec-14 15:45 045 14.4
2019-Dec-14 15:40 045 13.9
2019-Dec-14 15:35 046 13.9
2019-Dec-14 15:30 068 13.9
2019-Dec-14 15:25 13.9
2019-Dec-14 15:20 315 13.9
2019-Dec-14 15:15 315 13.9
2019-Dec-14 15:10 338 13.9
2019-Dec-14 15:05 338 13.3
2019-Dec-14 15:00 338 13.3
2019-Dec-14 14:55 338 12.8
2019-Dec-14 14:50 338 12.8
2019-Dec-14 14:45 338 12.8
2019-Dec-14 14:40 338 12.2
2019-Dec-14 14:35 338 12.2
2019-Dec-14 14:30 338 12.2
2019-Dec-14 14:25 338 12.2
2019-Dec-14 14:20 338 11.7
2019-Dec-14 14:15 338 11.7
2019-Dec-14 14:10 315 11.7
2019-Dec-14 14:05 315 11.1
2019-Dec-14 14:00 315 11.1
2019-Dec-14 13:55 315 11.1
2019-Dec-14 13:50 315 11.1
2019-Dec-14 13:45 315 11.1
2019-Dec-14 13:40 315 11.1
2019-Dec-14 13:35 315 11.1
2019-Dec-14 13:30 315 10.6
2019-Dec-14 13:25 315 10.6
2019-Dec-14 13:20 315 10.6
2019-Dec-14 13:15 315 10.6
2019-Dec-14 13:10 315 10.6
2019-Dec-14 13:05 315 10.6
2019-Dec-14 13:00 225 10.6
2019-Dec-14 12:55 225 10.6
2019-Dec-14 12:50 225 10.6
2019-Dec-14 12:45 244 10.6
2019-Dec-14 12:40 288 10.6
2019-Dec-14 12:35 292 10.6
2019-Dec-14 12:30 270 10.6
2019-Dec-14 12:25 270 10.6
2019-Dec-14 12:20 270 10.6
2019-Dec-14 12:15 248 10.6
2019-Dec-14 12:10 235 10.6
2019-Dec-14 12:05 248 10.6
2019-Dec-14 12:00 248 10.6
2019-Dec-14 11:55 248 11.1
2019-Dec-14 11:50 248 11.1
2019-Dec-14 11:45 237 11.1
2019-Dec-14 11:40 225 11.1
2019-Dec-14 11:35 225 11.1
2019-Dec-14 11:30 217 11.1
2019-Dec-14 11:25 212 0 gusting 2 11.1
2019-Dec-14 11:20 225 11.1
2019-Dec-14 10:55 241 1 gusting 5 11.1
2019-Dec-14 10:50 222 0 gusting 4 11.1
2019-Dec-14 10:45 248 11.1
2019-Dec-14 10:40 292 11.1
2019-Dec-14 10:35 292 11.1
2019-Dec-14 10:30 292 11.1
2019-Dec-14 10:25 292 11.1
2019-Dec-14 10:20 292 11.1
2019-Dec-14 10:15 292 11.1
2019-Dec-14 10:10 292 11.1
2019-Dec-14 10:05 292 11.1
2019-Dec-14 10:00 292 11.1
2019-Dec-14 09:55 292 11.1
2019-Dec-14 09:50 292 11.1
2019-Dec-14 09:45 292 11.1
2019-Dec-14 09:40 293 11.1
2019-Dec-14 09:35 292 11.1
2019-Dec-14 09:30 292 11.7
2019-Dec-14 09:25 292 11.7
2019-Dec-14 09:20 292 11.7
2019-Dec-14 09:05 292 11.7
2019-Dec-14 09:00 315 11.7
2019-Dec-14 08:55 315 11.7
2019-Dec-14 08:50 292 11.7
2019-Dec-14 08:45 292 11.7
2019-Dec-14 08:40 292 11.7
2019-Dec-14 08:35 292 11.7
2019-Dec-14 08:30 292 11.7
2019-Dec-14 08:25 292 11.7
2019-Dec-14 08:20 292 11.7
2019-Dec-14 08:15 292 11.7
2019-Dec-14 08:10 292 11.7
2019-Dec-14 08:05 292 11.7
2019-Dec-14 08:00 292 11.7
2019-Dec-14 07:55 292 11.7
2019-Dec-14 07:50 292 11.7
2019-Dec-14 07:45 292 11.7
2019-Dec-14 07:40 292 11.7
2019-Dec-14 07:35 292 11.7
2019-Dec-14 07:30 292 11.7
2019-Dec-14 07:25 292 11.7
2019-Dec-14 07:20 292 11.7
2019-Dec-14 07:15 292 11.7
2019-Dec-14 07:10 292 11.7
2019-Dec-14 07:05 270 11.7
2019-Dec-14 07:00 248 11.7
2019-Dec-14 06:55 248 11.7
2019-Dec-14 06:50 248 11.7
2019-Dec-14 06:45 248 11.7
2019-Dec-14 06:40 248 11.7
2019-Dec-14 06:35 225 11.7
2019-Dec-14 06:30 225 0 gusting 1 11.7
2019-Dec-14 06:25 227 11.7
2019-Dec-14 06:20 248 11.7
2019-Dec-14 06:15 256 11.7
2019-Dec-14 06:10 249 11.7
2019-Dec-14 06:05 282 11.7
2019-Dec-14 06:00 270 11.7
2019-Dec-14 05:55 248 11.7
2019-Dec-14 05:50 266 11.7
2019-Dec-14 05:45 225 0 gusting 2 11.7
2019-Dec-14 05:40 250 11.7
2019-Dec-14 05:35 255 1 gusting 2 12.2
2019-Dec-14 05:30 246 0 gusting 4 12.2
2019-Dec-14 05:25 225 0 gusting 4 12.2
2019-Dec-14 05:20 227 1 gusting 1 12.2
2019-Dec-14 05:15 259 12.2
2019-Dec-14 05:10 257 0 gusting 2 12.2
2019-Dec-14 05:05 248 12.2
2019-Dec-14 05:00 237 2 gusting 5 12.2
2019-Dec-14 04:55 248 0 gusting 5 12.2
2019-Dec-14 04:50 225 1 gusting 4 12.2
2019-Dec-14 04:45 248 0 gusting 4 12.2
2019-Dec-14 04:40 228 0 gusting 1 12.2
2019-Dec-14 04:35 250 0 gusting 4 12.2
2019-Dec-14 04:30 257 12.2
2019-Dec-14 04:25 266 0 gusting 2 12.2
2019-Dec-14 04:20 279 1 gusting 4 12.2
2019-Dec-14 04:15 239 12.2
2019-Dec-14 04:10 255 1 gusting 2 12.2
2019-Dec-14 04:05 268 0 gusting 4 12.2
2019-Dec-14 04:00 267 0 gusting 2 12.2
2019-Dec-14 03:55 253 0 gusting 2 12.2
2019-Dec-14 03:50 248 11.7
2019-Dec-14 03:45 270 0 gusting 4 11.7
2019-Dec-14 03:40 262 0 gusting 2 11.7
2019-Dec-14 03:35 252 0 gusting 2 11.7
2019-Dec-14 03:30 280 11.7
2019-Dec-14 03:25 276 0 gusting 2 11.7
2019-Dec-14 03:20 269 0 gusting 4 11.7
2019-Dec-14 03:15 268 11.7
2019-Dec-14 03:10 297 11.7
2019-Dec-14 03:05 253 0 gusting 2 11.7
2019-Dec-14 03:00 315 0 gusting 1 11.1
2019-Dec-14 02:55 270 0 gusting 1 11.1
2019-Dec-14 02:50 290 1 gusting 4 11.1
2019-Dec-14 02:45 292 0 gusting 4 11.1
2019-Dec-14 02:40 301 1 gusting 4 11.1
2019-Dec-14 02:35 278 1 gusting 4 11.1
2019-Dec-14 02:30 273 0 gusting 5 11.1
2019-Dec-14 02:25 278 0 gusting 2 11.1
2019-Dec-14 02:20 270 11.1
2019-Dec-14 02:15 292 11.1
2019-Dec-14 02:10 281 1 gusting 4 11.1
2019-Dec-14 02:05 293 11.1
2019-Dec-14 02:00 292 1 gusting 4 11.1
2019-Dec-14 01:55 279 0 gusting 2 11.1
2019-Dec-14 01:50 304 0 gusting 4 11.1
2019-Dec-14 01:45 290 0 gusting 4 11.1
2019-Dec-14 01:40 277 0 gusting 6 11.1
2019-Dec-14 01:35 295 0 gusting 2 11.1
2019-Dec-14 01:30 288 0 gusting 2 11.1
2019-Dec-14 01:25 300 1 gusting 5 11.1
2019-Dec-14 01:20 270 0 gusting 2 11.1
2019-Dec-14 01:15 287 0 gusting 2 11.1
2019-Dec-14 01:10 282 2 gusting 6 11.1
2019-Dec-14 01:05 294 0 gusting 2 11.1
2019-Dec-14 01:00 285 0 gusting 2 11.1
2019-Dec-14 00:55 292 0 gusting 2 11.1
2019-Dec-14 00:50 284 0 gusting 2 11.1
2019-Dec-14 00:45 315 11.1
2019-Dec-14 00:40 282 11.1
2019-Dec-14 00:35 292 0 gusting 2 11.1
2019-Dec-14 00:30 273 0 gusting 4 11.1
2019-Dec-14 00:25 292 0 gusting 2 10.6
2019-Dec-14 00:20 274 10.6
2019-Dec-14 00:15 269 10.6
2019-Dec-14 00:10 292 10.6
2019-Dec-14 00:05 252 10.6
2019-Dec-14 00:00 292 10.6
2019-Dec-13 23:55 270 10.6
2019-Dec-13 23:50 248 0 gusting 1 10.6
2019-Dec-13 23:45 250 10.6
2019-Dec-13 23:40 292 10.6
2019-Dec-13 23:35 270 10.6
2019-Dec-13 23:30 270 10.6
2019-Dec-13 23:25 292 10.6
2019-Dec-13 23:20 315 10.6
2019-Dec-13 23:00 315 10.6
2019-Dec-13 22:55 315 0 gusting 1 10.6
2019-Dec-13 22:50 310 0 gusting 2 10.6
2019-Dec-13 22:40 338 10.6
2019-Dec-13 22:35 338 10.6
2019-Dec-13 22:30 316 10.6
2019-Dec-13 22:25 315 10.6
2019-Dec-13 22:20 315 10.6
2019-Dec-13 22:15 315 10.6
2019-Dec-13 22:10 337 10.0
2019-Dec-13 22:05 324 10.0
2019-Dec-13 22:00 329 0 gusting 1 10.0
2019-Dec-13 21:55 338 10.0
2019-Dec-13 21:50 315 10.0
2019-Dec-13 21:45 315 10.0
2019-Dec-13 21:40 315 10.6
2019-Dec-13 21:35 315 10.6
2019-Dec-13 21:30 315 10.0
2019-Dec-13 21:25 315 10.6
2019-Dec-13 21:20 315 10.6
2019-Dec-13 21:15 315 10.6
2019-Dec-13 21:10 315 10.6
2019-Dec-13 21:05 338 10.6
2019-Dec-13 21:00 338 10.0
2019-Dec-13 20:55 338 10.6
2019-Dec-13 20:50 338 10.6
2019-Dec-13 20:45 315 10.6
2019-Dec-13 20:40 315 10.0
2019-Dec-13 20:35 315 10.6
2019-Dec-13 20:30 315 10.0
2019-Dec-13 20:25 315 10.0
2019-Dec-13 20:20 315 0 gusting 2 10.0
2019-Dec-13 20:15 338 10.0
2019-Dec-13 20:10 315 10.0
2019-Dec-13 20:05 315 10.0
2019-Dec-13 20:00 292 0 gusting 2 10.0
2019-Dec-13 19:55 315 0 gusting 1 10.0
2019-Dec-13 19:50 338 10.6
2019-Dec-13 19:45 336 0 gusting 2 10.6
2019-Dec-13 19:40 338 0 gusting 2 10.6
2019-Dec-13 19:35 315 0 gusting 2 10.6
2019-Dec-13 19:30 315 0 gusting 2 10.6
2019-Dec-13 19:25 315 1 gusting 4 10.6
2019-Dec-13 19:20 315 0 gusting 2 10.6
2019-Dec-13 19:15 358 0 gusting 1 10.6
2019-Dec-13 19:10 315 10.6
2019-Dec-13 19:05 315 10.6
2019-Dec-13 19:00 315 0 gusting 1 10.6
2019-Dec-13 18:55 315 10.6
2019-Dec-13 18:50 315 11.1
2019-Dec-13 18:45 315 11.1
2019-Dec-13 18:40 315 11.1
2019-Dec-13 18:35 315 11.1
2019-Dec-13 18:30 338 11.1
2019-Dec-13 18:25 317 11.1
2019-Dec-13 18:20 323 11.1
2019-Dec-13 18:15 315 11.1
2019-Dec-13 18:10 292 11.1
2019-Dec-13 18:05 315 1 gusting 4 11.1
2019-Dec-13 18:00 335 0 gusting 2 11.1
2019-Dec-13 17:55 320 0 gusting 2 11.1
2019-Dec-13 17:50 002 1 gusting 4 11.1
2019-Dec-13 17:45 11.1
2019-Dec-13 17:40 338 1 gusting 4 11.1
2019-Dec-13 17:35 345 0 gusting 2 11.1
2019-Dec-13 17:30 324 1 gusting 4 11.1
2019-Dec-13 17:25 315 0 gusting 2 11.1
2019-Dec-13 17:20 11.1
2019-Dec-13 17:15 335 1 gusting 2 11.1
2019-Dec-13 17:10 315 1 gusting 4 11.1
2019-Dec-13 17:05 338 0 gusting 2 11.1
2019-Dec-13 17:00 325 1 gusting 4 11.1
2019-Dec-13 16:55 331 0 gusting 1 11.1
2019-Dec-13 16:50 338 0 gusting 4 11.1
2019-Dec-13 16:45 354 0 gusting 2 11.1
2019-Dec-13 16:40 338 0 gusting 5 10.6
2019-Dec-13 16:35 317 11.1
2019-Dec-13 16:30 323 0 gusting 1 10.6
2019-Dec-13 16:25 346 0 gusting 1 10.6
2019-Dec-13 16:20 10.6
2019-Dec-13 16:15 323 2 gusting 4 10.6
2019-Dec-13 16:10 337 10.6
2019-Dec-13 16:05 338 0 gusting 2 10.0
2019-Dec-13 16:00 334 1 gusting 4 10.0
2019-Dec-13 15:55 338 1 gusting 2 9.4
2019-Dec-13 15:50 338 0 gusting 5 9.4
2019-Dec-13 15:45 338 8.9
2019-Dec-13 15:40 336 0 gusting 4 8.9
2019-Dec-13 15:35 340 0 gusting 2 8.3
2019-Dec-13 15:30 339 0 gusting 2 7.8
2019-Dec-13 15:25 341 0 gusting 5 7.2
2019-Dec-13 15:20 001 6.7
2019-Dec-13 15:15 022 2 gusting 5 6.7
2019-Dec-13 15:10 349 0 gusting 2 6.1
2019-Dec-13 15:05 005 1 gusting 4 5.6
2019-Dec-13 15:00 349 0 gusting 2 5.6
2019-Dec-13 14:55 329 1 gusting 2 5.0
2019-Dec-13 14:50 330 0 gusting 4 5.0
2019-Dec-13 14:45 4.4
2019-Dec-13 14:40 338 0 gusting 1 4.4
2019-Dec-13 14:35 350 3.9
2019-Dec-13 14:30 338 0 gusting 1 3.9
2019-Dec-13 14:25 338 3.3
2019-Dec-13 14:20 350 3.3
2019-Dec-13 14:15 2.8
2019-Dec-13 14:10 338 2.8
2019-Dec-13 14:05 338 0 gusting 0 2.2
2019-Dec-13 14:00 338 2.2
2019-Dec-13 13:55 338 2.2
2019-Dec-13 13:50 338 1.7
2019-Dec-13 13:45 338 1.7
2019-Dec-13 13:40 338 1.7
2019-Dec-13 13:35 338 2 gusting 2 1.7
2019-Dec-13 13:30 316 1 gusting 2 1.7
2019-Dec-13 13:25 315 0 gusting 1 1.7
2019-Dec-13 13:20 315 0 gusting 2 1.7
2019-Dec-13 13:15 292 0 gusting 2 1.1
2019-Dec-13 13:10 292 0 gusting 1 1.1
2019-Dec-13 13:05 225 1.1
2019-Dec-13 13:00 225 1.1
2019-Dec-13 12:55 225 1.1
2019-Dec-13 12:50 225 0.6
2019-Dec-13 12:45 225 0.6
2019-Dec-13 12:40 225 0.6
2019-Dec-13 12:35 225 0.6
2019-Dec-13 12:30 225 0.6
2019-Dec-13 12:25 225 -0.0
2019-Dec-13 12:20 225 -0.0
2019-Dec-13 12:15 225 -0.0
2019-Dec-13 12:10 225 -0.0
2019-Dec-13 12:05 292 -0.0
2019-Dec-13 12:00 292 -0.0
2019-Dec-13 11:55 292 -0.6
2019-Dec-13 11:50 292 -0.6
2019-Dec-13 11:45 315 -0.6
2019-Dec-13 11:40 315 -0.6
2019-Dec-13 11:35 315 -0.6
2019-Dec-13 11:30 315 -0.6
2019-Dec-13 11:25 315 -1.1
2019-Dec-13 11:20 315 -1.1
2019-Dec-13 11:15 315 -1.1
2019-Dec-13 11:10 315 -1.7
2019-Dec-13 11:05 315 -1.7
2019-Dec-13 11:00 315 -1.7
2019-Dec-13 10:55 315 -1.7
2019-Dec-13 10:50 315 -2.2
2019-Dec-13 10:45 315 -2.2
2019-Dec-13 10:40 315 -2.2
2019-Dec-13 10:35 315 -2.2
2019-Dec-13 10:30 315 -2.2
2019-Dec-13 10:25 315 -2.2
2019-Dec-13 10:20 315 -2.2
2019-Dec-13 10:15 315 -2.2
2019-Dec-13 10:10 315 -2.2
2019-Dec-13 10:05 315 -2.2
2019-Dec-13 10:00 315 -2.2
2019-Dec-13 09:55 315 -2.2
2019-Dec-13 09:50 315 -2.2
2019-Dec-13 09:45 315 -2.2
2019-Dec-13 09:40 315 -2.2
2019-Dec-13 09:35 315 -2.2
2019-Dec-13 09:30 315 -2.2
2019-Dec-13 09:25 315 -2.2
2019-Dec-13 09:20 315 -2.2
2019-Dec-13 09:15 315 -2.2
2019-Dec-13 09:10 315 -2.2
2019-Dec-13 09:05 315 -2.2
2019-Dec-13 09:00 315 -2.2
2019-Dec-13 08:55 315 -2.2
2019-Dec-13 08:50 315 -2.2
2019-Dec-13 08:45 315 -2.2
2019-Dec-13 08:40 315 -2.2
2019-Dec-13 08:35 315 -2.2
2019-Dec-13 08:30 315 -2.2
2019-Dec-13 08:25 315 -1.7
2019-Dec-13 08:20 315 -1.7
2019-Dec-13 08:15 315 -1.7
2019-Dec-13 08:10 315 -1.7
2019-Dec-13 08:05 315 -1.7
2019-Dec-13 08:00 315 -1.7
2019-Dec-13 07:55 315 -1.7
2019-Dec-13 07:50 315 -1.7
2019-Dec-13 07:45 315 -1.7
2019-Dec-13 07:40 315 -1.7
2019-Dec-13 07:35 315 -1.7
2019-Dec-13 07:30 315 -1.7
2019-Dec-13 07:25 315 -1.7
2019-Dec-13 07:20 315 -1.7
2019-Dec-13 07:10 315 -1.1
2019-Dec-13 07:05 315 -1.1
2019-Dec-13 07:00 315 -1.1
2019-Dec-13 06:55 315 -1.1
2019-Dec-13 06:50 315 -1.7
2019-Dec-13 06:45 315 -1.7
2019-Dec-13 06:40 315 -1.7
2019-Dec-13 06:35 315 -1.7
2019-Dec-13 06:30 315 -1.7
2019-Dec-13 06:25 315 -1.7
2019-Dec-13 06:20 315 0 gusting 2 -1.7
2019-Dec-13 06:15 315 -1.7
2019-Dec-13 06:10 315 -1.7
2019-Dec-13 06:05 315 -1.7
2019-Dec-13 06:00 315 -1.7
2019-Dec-13 05:55 315 0 gusting 0 -2.2
2019-Dec-13 05:50 315 -2.2
2019-Dec-13 05:45 315 -2.2
2019-Dec-13 05:40 315 -2.2
2019-Dec-13 05:35 315 -2.2
2019-Dec-13 05:30 292 -2.2
2019-Dec-13 05:25 292 -2.2
2019-Dec-13 05:20 292 -2.2
2019-Dec-13 05:10 292 -2.2
2019-Dec-13 05:05 292 -2.2
2019-Dec-13 05:00 292 -2.2